Location: Altleiningen
(49.5078°N, 8.0741°E)
Time: 23:27:06
(UTC+00:00)

Cosmos 2237 - Pass Details

Date: 03 March 2021
Orbit: 845 x 857 km, 70.9° (Epoch: 12 April)

Event Time Altitude Azimuth Distance (km) Brightness Sun altitude
Rises 18:07:11 0° 187° (S) 3,408 7.4 -9.4°
Reaches altitude 10° 18:09:42 10° 182° (S) 2,478 6.7 -9.9°
Maximum altitude 18:15:07 47° 110° (ESE) 1,125 4.5 -10.7°
Drops below altitude 10° 18:20:35 10° 38° (NE) 2,500 6.3 -11.6°
Sets 18:23:07 0° 33° (NNE) 3,441 7.1 -12.0°
